sat.trackr.live / text

‹ back to catalog

STARLINK-36721

NORAD 67916 · 2026-036N

PAYLOAD ACTIVE UNKNOWN

§ Identity

Operator
Country
US
Launch date
2026-02-22
Launch site
AFETR
Launch vehicle
Mass (kg)
RCS (m²)

Purposes: comms

External: N2YO · Heavens-Above · Gunter

§ Orbital elements

Epoch: 2026-09-19T06:56:52.996992Z

Period
94.27 min
Inclination
42.9992°
Eccentricity
0.0000139
Mean motion
15.27602834 rev/d
Perigee alt
482.9 km
Apogee alt
483.1 km
Semi-major
6,861.1 km
B*
3.4472e-4
RAAN
231.6484°
Arg perigee
287.9372°
Mean anomaly
72.1465°
Rev number
3,333

§ Raw data

STARLINK-367211 67916U 26036N   26262.28950228  .00009243  00000+0  34472-3 0  99902 67916  42.9992 231.6484 0000139 287.9372  72.1465 15.27602834 33330

JSON: /api/v1/satellites/67916 · /tle

For live sub-satellite position, see the globe view (requires WebGL).

§ Visibility from observer

Set your observer location to see the next 7 days of passes ≥ 10°. The values pass through the URL so the page stays shareable.

No JS? Fill the form by hand. The geolocation button needs JavaScript.